OneWeb SL0684

operational
NORAD ID: 56720 Int'l Des: 2023-068 Owner: ONEWEBN Country: UK Constellation: oneweb
LEOCIRCULARPOLARONEWEB_TYPE

OneWeb SL0684について

説明を読み込み中...

リアルタイム位置

3D地球を読み込み中...

次回通過

高度履歴

Altitude vs Time

uPlot chart will show altitude changes over time

軌道要素

1 56720U 23068L 26062.11547310 .00000130 00000-0 31007-3 0 9995
2 56720 87.8952 280.3589 0002403 120.1620 239.9749 13.15546934135303
Epoch: Mar 3, 2026 • Age: 22 hours

現在のステータス

高度 1206.6 km
速度 7.26 km/s
衛星直下点 43.59°N, 29.22°W
打ち上げ日 May 20, 2023
運用期間 2.7 years
タイプ internet

技術仕様

分類 Payload
質量 148.00 kg
乾燥質量 140.00 kg
総質量 148.00 kg
長さ 1.30 m
直径 1.00 m
スパン 5.00 m
形状 Trapezoid+2 pan
製造者 ONEWUS
バスタイプ ARROW
フェーズステータス In Orbit
所有者/国 ONEWEBN/UK

大規模コンステレーション

Loading constellations...